Hourly Weather Pawlowek

Today, 11 July, Saturday

Time Temperature Precipitation Wind Pressure Humidity
00:00 +17°C° 0 mm 5 mps 742 mmHg 91%
01:00 +16°C° 0 mm 5 mps 743 mmHg 90%
02:00 +15°C° 0.1 mm 5 mps 743 mmHg 89%
03:00 +14°C° 0.1 mm 4 mps 744 mmHg 88%
04:00 +13°C° 0.1 mm 4 mps 744 mmHg 88%
05:00 +13°C° 0 mm 4 mps 744 mmHg 85%
06:00 +14°C° 0 mm 3 mps 745 mmHg 82%
07:00 +14°C° 0 mm 3 mps 746 mmHg 79%
08:00 +14°C° 0 mm 3 mps 746 mmHg 77%
09:00 +14°C° 0 mm 3 mps 747 mmHg 75%
10:00 +16°C° 0 mm 3 mps 747 mmHg 73%
11:00 +14°C° 1 mm 3 mps 747 mmHg 77%
12:00 +15°C° 1 mm 2 mps 747 mmHg 81%
13:00 +14°C° 1 mm 1 mps 747 mmHg 85%
14:00 +15°C° 0.4 mm 1 mps 748 mmHg 81%
15:00 +15°C° 0.4 mm 1 mps 748 mmHg 76%
16:00 +16°C° 0.4 mm 1 mps 748 mmHg 72%
17:00 +16°C° 0 mm 1 mps 748 mmHg 75%
18:00 +15°C° 0 mm 1 mps 748 mmHg 78%
19:00 +15°C° 0 mm 2 mps 748 mmHg 81%
20:00 +14°C° 0.1 mm 2 mps 748 mmHg 81%
21:00 +14°C° 0.1 mm 2 mps 749 mmHg 82%
22:00 +13°C° 0.1 mm 2 mps 749 mmHg 83%
23:00 +13°C° 0 mm 2 mps 749 mmHg 83%

Tomorrow, 12 July, Sunday

Time Temperature Precipitation Wind Pressure Humidity
00:00 +13°C° 0 mm 2 mps 749 mmHg 83%
01:00 +12°C° 0 mm 2 mps 748 mmHg 83%
02:00 +12°C° 0 mm 2 mps 748 mmHg 84%
03:00 +12°C° 0 mm 2 mps 748 mmHg 84%
04:00 +10°C° 0 mm 2 mps 748 mmHg 85%
05:00 +12°C° 0 mm 2 mps 749 mmHg 82%
06:00 +14°C° 0 mm 2 mps 749 mmHg 79%
07:00 +15°C° 0 mm 2 mps 749 mmHg 75%
08:00 +16°C° 0.1 mm 2 mps 749 mmHg 69%
09:00 +18°C° 0.1 mm 3 mps 749 mmHg 64%
10:00 +19°C° 0.1 mm 3 mps 749 mmHg 58%
11:00 +19°C° 0.3 mm 3 mps 749 mmHg 58%
12:00 +20°C° 0.3 mm 4 mps 749 mmHg 58%
13:00 +20°C° 0.3 mm 4 mps 748 mmHg 58%
14:00 +20°C° 0.2 mm 4 mps 748 mmHg 58%
15:00 +20°C° 0.2 mm 4 mps 748 mmHg 58%
16:00 +20°C° 0.2 mm 4 mps 748 mmHg 58%
17:00 +19°C° 0 mm 3 mps 748 mmHg 62%
18:00 +18°C° 0 mm 3 mps 748 mmHg 67%
19:00 +17°C° 0 mm 3 mps 749 mmHg 71%
20:00 +16°C° 0 mm 2 mps 749 mmHg 71%
21:00 +14°C° 0 mm 2 mps 749 mmHg 70%
22:00 +13°C° 0 mm 2 mps 749 mmHg 70%
23:00 +13°C° 0 mm 2 mps 749 mmHg 73%

Day after tomorrow, 13 July, Monday

Time Temperature Precipitation Wind Pressure Humidity
00:00 +12°C° 0 mm 2 mps 749 mmHg 76%
01:00 +12°C° 0 mm 2 mps 749 mmHg 80%
02:00 +10°C° 0 mm 2 mps 749 mmHg 82%
03:00 +11°C° 0 mm 1 mps 749 mmHg 84%
04:00 +11°C° 0 mm 1 mps 749 mmHg 87%
05:00 +12°C° 0 mm 2 mps 749 mmHg 82%
06:00 +14°C° 0 mm 2 mps 749 mmHg 78%
07:00 +14°C° 0 mm 3 mps 749 mmHg 73%
08:00 +16°C° 0 mm 3 mps 749 mmHg 68%
09:00 +18°C° 0 mm 3 mps 749 mmHg 63%
10:00 +19°C° 0 mm 4 mps 748 mmHg 58%
11:00 +19°C° 0 mm 4 mps 748 mmHg 57%
12:00 +20°C° 0 mm 4 mps 748 mmHg 55%
13:00 +20°C° 0 mm 4 mps 748 mmHg 54%
14:00 +20°C° 0.2 mm 4 mps 747 mmHg 57%
15:00 +20°C° 0.2 mm 4 mps 747 mmHg 61%
16:00 +19°C° 0.2 mm 3 mps 747 mmHg 65%
17:00 +19°C° 0.1 mm 3 mps 747 mmHg 69%
18:00 +18°C° 0.1 mm 2 mps 747 mmHg 74%
19:00 +17°C° 0.1 mm 2 mps 747 mmHg 78%
20:00 +16°C° 0 mm 2 mps 747 mmHg 81%
21:00 +15°C° 0 mm 2 mps 747 mmHg 84%
22:00 +14°C° 0 mm 1 mps 747 mmHg 88%
23:00 +13°C° 0 mm 1 mps 747 mmHg 89%

14 July, Tuesday

Time Temperature Precipitation Wind Pressure Humidity
00:00 +13°C° 0 mm 1 mps 747 mmHg 90%
01:00 +13°C° 0 mm 1 mps 747 mmHg 91%
02:00 +12°C° 0 mm 1 mps 747 mmHg 91%
03:00 +12°C° 0 mm 1 mps 747 mmHg 92%
04:00 +12°C° 0 mm 1 mps 746 mmHg 93%
05:00 +13°C° 0 mm 1 mps 746 mmHg 88%
06:00 +15°C° 0 mm 1 mps 747 mmHg 84%
07:00 +16°C° 0 mm 1 mps 747 mmHg 79%
08:00 +17°C° 0.1 mm 2 mps 747 mmHg 74%
09:00 +18°C° 0.1 mm 2 mps 747 mmHg 68%
10:00 +19°C° 0.1 mm 2 mps 747 mmHg 62%
11:00 +20°C° 0.1 mm 2 mps 746 mmHg 60%
12:00 +21°C° 0.1 mm 2 mps 746 mmHg 57%
13:00 +21°C° 0.1 mm 2 mps 746 mmHg 55%
14:00 +21°C° 0 mm 2 mps 746 mmHg 55%
15:00 +21°C° 0 mm 2 mps 745 mmHg 55%
16:00 +21°C° 0 mm 2 mps 745 mmHg 55%
17:00 +21°C° 0 mm 2 mps 745 mmHg 60%
18:00 +20°C° 0 mm 2 mps 745 mmHg 66%
19:00 +19°C° 0 mm 2 mps 745 mmHg 71%
20:00 +17°C° 0 mm 2 mps 745 mmHg 74%
21:00 +16°C° 0 mm 1 mps 745 mmHg 77%
22:00 +15°C° 0 mm 1 mps 745 mmHg 80%
23:00 +15°C° 0 mm 1 mps 745 mmHg 82%

15 July, Wednesday

Time Temperature Precipitation Wind Pressure Humidity
00:00 +14°C° 0 mm 1 mps 745 mmHg 83%
01:00 +14°C° 0 mm 1 mps 745 mmHg 85%
02:00 +14°C° 0 mm 1 mps 745 mmHg 86%
03:00 +14°C° 0 mm 1 mps 745 mmHg 87%
04:00 +14°C° 0 mm 1 mps 744 mmHg 88%
05:00 +15°C° 0 mm 1 mps 744 mmHg 82%
06:00 +18°C° 0 mm 1 mps 744 mmHg 77%
07:00 +19°C° 0 mm 2 mps 744 mmHg 71%
08:00 +20°C° 0 mm 2 mps 744 mmHg 65%
09:00 +21°C° 0 mm 2 mps 744 mmHg 59%
10:00 +24°C° 0 mm 2 mps 744 mmHg 53%
11:00 +24°C° 0 mm 2 mps 744 mmHg 52%
12:00 +25°C° 0 mm 2 mps 744 mmHg 50%
13:00 +26°C° 0 mm 3 mps 743 mmHg 49%
14:00 +26°C° 0 mm 3 mps 743 mmHg 49%
15:00 +26°C° 0 mm 2 mps 743 mmHg 50%
16:00 +26°C° 0 mm 2 mps 742 mmHg 50%
17:00 +25°C° 0 mm 2 mps 742 mmHg 54%
18:00 +24°C° 0 mm 2 mps 742 mmHg 58%
19:00 +23°C° 0 mm 1 mps 742 mmHg 61%
20:00 +21°C° 0 mm 2 mps 742 mmHg 62%
21:00 +20°C° 0 mm 2 mps 742 mmHg 64%
22:00 +19°C° 0 mm 2 mps 742 mmHg 65%
23:00 +19°C° 0 mm 3 mps 742 mmHg 68%

16 July, Thursday

Time Temperature Precipitation Wind Pressure Humidity
00:00 +18°C° 0 mm 3 mps 742 mmHg 71%
01:00 +18°C° 0 mm 3 mps 741 mmHg 75%
02:00 +18°C° 0.1 mm 3 mps 741 mmHg 78%
03:00 +17°C° 0.1 mm 3 mps 741 mmHg 81%
04:00 +17°C° 0.1 mm 4 mps 741 mmHg 85%
05:00 +17°C° 0.1 mm 4 mps 741 mmHg 84%
06:00 +18°C° 0.1 mm 4 mps 742 mmHg 84%
07:00 +18°C° 0.1 mm 4 mps 742 mmHg 83%
08:00 +17°C° 0 mm 5 mps 742 mmHg 81%
09:00 +17°C° 0 mm 5 mps 742 mmHg 78%
10:00 +19°C° 0 mm 5 mps 742 mmHg 75%
11:00 +19°C° 0.1 mm 5 mps 742 mmHg 73%
12:00 +20°C° 0.1 mm 5 mps 742 mmHg 71%
13:00 +20°C° 0.1 mm 5 mps 742 mmHg 69%
14:00 +20°C° 0.2 mm 6 mps 742 mmHg 68%
15:00 +20°C° 0.2 mm 6 mps 742 mmHg 67%
16:00 +21°C° 0.2 mm 6 mps 742 mmHg 66%
17:00 +20°C° 0 mm 5 mps 742 mmHg 68%
18:00 +19°C° 0 mm 5 mps 742 mmHg 71%
19:00 +18°C° 0 mm 4 mps 742 mmHg 73%
20:00 +17°C° 0 mm 4 mps 742 mmHg 76%
21:00 +16°C° 0 mm 3 mps 743 mmHg 78%
22:00 +13°C° 0 mm 3 mps 743 mmHg 81%
23:00 +13°C° 0 mm 3 mps 743 mmHg 83%
Show more